FENGYUN 1C DEB *, 46993

Orbit data source: Space-Track

FENGYUN 1C DEB *, 46993 is space debris in SSO originally from a launch on Mon, 10 May 1999 UTC launched from the Taiyaun Space Center, China (TSC). Fengyun 1C debris stems from the Chinese weather satellite Fengyun-1C, which was intentionally destroyed by a Chinese anti-satellite missile in 2007. This event dramatically increased the amount of space debris, with thousands of trackable fragments posing hazards to satellites and human spaceflight. The Fengyun 1C debris cloud has become a focal point in discussions about space sustainability and the need for international regulations to prevent the creation of new debris.

Loading next visibility...
Identifier
46993, 1999-025EZT
Orbit
SSO
Country
Flag of CNCN / PRC
Related business
Manufacturer
Unknown
Mission
Spacecraft
Bus & Motor
Unknown
Mass
Unknown
Launch date (UTC)
1999-05-10 (26 years ago)
Launch vehicle
Unknown
Launch site
Taiyaun Space Center, China (TSC)
Object type
Payload
Rocket body
Debris
Shape & HBR
Unknown shape, 0.1 m
Radar Cross Section
Small (<0.1 m²)

Expand to show TLE details & history
Last TLE update: 2 days ago

TLE from 2 days ago
0 FENGYUN 1C DEB *
1 46993U 99025EZT 25285.62750360  .00000342  00000-0  34191-3 0  9997
2 46993  98.7190  49.7929 0264687 101.3919 277.1839 13.69086350594213
Epoch: 2025-10-12T15:03Z
TLE epoch observation values (Epoch: 2025-10-12T15:03:36.311Z)
Latitude
15.34921°
Longitude
160.04957°
Altitude
985.689 km
Speed
7.37 km/s
True Right ascension
03h 09m 34s
True Declination
15° 15' 52"
Sunlit
Object was in full shadow at epoch
Visualization orbit readout
Latitude
Unknown
Longitude
Unknown
Altitude
Unknown
Speed
Unknown
Apparent Right ascension
Unknown
Apparent Declination
Unknown
Sunlit
N/A
Visualization observer readout
Local Sidereal Time
04:25:29
Azimuth
Unknown
Elevation
Unknown
Doppler factor
Unknown
Orbital elements
Apogee altitude
1,195.369 km
Perigee altitude
804.786 km
Semi-major axis
7,378.215 km
Eccentricity
0.02647
Inclination
98.719°
RAAN
49.7929°
Arg. of periapsis
101.3919°
True anomaly
274.16352°
Mean anomaly
277.1839°
Eccentric anomaly
275.67479°
Mean motion
3.42465 °/min
Orbital period
105.12 mins
BSTAR
0.00034191
Loading maneuver chart data...
Computing Atmospheric mass density...

Documentation

Showing up to 5 results
|